STARLINK-35722, 66218

Orbit data source: Space-Track

STARLINK-35722, 66218 is a payload satellite owned by SpaceX/Seattle (US) in LEO that was launched on Tue, 28 Oct 2025 UTC via an FALCON 9 launch vehicle from the Air Force Western Test Range (AFWTR). Payload-class satellites include a variety of spacecraft equipped with specific instruments for various scientific and technological missions. These include communications satellites like Starlink; space stations such as the ISS; scientific satellites like the Hubble; Earth observation satellites from companies like Planet Labs, Umbra, and HawkEye 360; GPS; miniature CubeSats for education and research; and military/defense satellites.

Loading next visibility...
Identifier
66218, 2025-244N
Orbit
LEO
Country
Flag of USUS
Related business
Manufacturer
SpaceX/Seattle
Mission
Operational Commercial Communications
Bus & Motor
STARLINK V2MO, Unknown motor
Mass
575 kg wet, ~530 kg dry
Launch date (UTC)
2025-10-28 (8 months ago)
Launch vehicle
FALCON 9
Launch site
Air Force Western Test Range (AFWTR)
Object type
Payload
Rocket body
Debris
Shape & HBR
Box + 2 Pan, 17.7 m
Radar Cross Section
36.964 m², Large (>1 m²)

Expand to show TLE details & history
Last TLE update: 1 day ago

TLE from 1 day ago
0 STARLINK-35722
1 66218U 25244N   26170.85934666  .00016160  00000-0  48821-3 0  9993
2 66218  53.1586 114.5303 0001155  88.0607 272.0528 15.34411788 37313
Epoch: 2026-06-19T20:37Z
TLE epoch observation values (Epoch: 2026-06-19T20:37:27.551Z)
Latitude
-0.00001°
Longitude
-102.91678°
Altitude
463.541 km
Speed
7.636 km/s
True Right ascension
07h 38m 07s
True Declination
0° 00' 00"
Sunlit
Object was in daylight at epoch
Visualization orbit readout
Latitude
Unknown
Longitude
Unknown
Altitude
Unknown
Speed
Unknown
Apparent Right ascension
Unknown
Apparent Declination
Unknown
Sunlit
N/A
Visualization observer readout
Local Sidereal Time
07:17:47
Azimuth
Unknown
Elevation
Unknown
Doppler factor
Unknown
Orbital elements
Apogee altitude
463.715 km
Perigee altitude
462.135 km
Semi-major axis
6,841.062 km
Eccentricity
0.00012
Inclination
53.1586°
RAAN
114.5303°
Arg. of periapsis
88.0607°
True anomaly
272.03957°
Mean anomaly
272.0528°
Eccentric anomaly
272.04619°
Mean motion
3.83582 °/min
Orbital period
93.85 mins
BSTAR
0.00048821
Loading maneuver chart data...
Computing Atmospheric mass density...
Loading historical data...
Loading historical data...
Loading historical data...
Loading historical data...
Loading historical data...
Loading historical data...
Loading historical data...

Documentation

Showing up to 5 results
|